Flag for Canada Weather past 2 weeks in Hopedale, Newfoundland and Labrador, Canada

Now
11 °F

Cold.


Feels Like: 11 °F
Forecast: 8 / 28 °F
Wind: No wind

Location: Hopedale

Current Time: Mar 30, 2015 at 1:46:13 AM

Latest Report: Mar 30, 2015 at 1:00 AM


Visibility: N/A

Pressure: 29.62 "Hg

Humidity: 90%

Dew point: 9 °F

Location of HopedaleLocation

Historic Weather in Hopedale — Graph

°F

Hopedale temperature yesterday

Maximum temperature yesterday: 23 °F (at 1:00 PM)
Minimum temperature yesterday: 7 °F (at 12:00 AM)
Average temperature yesterday: 14 °F

Past Weeks' High & Low Weather Summary

 TemperatureHumidityPressure
High33 °F (Mar 23, 5:00 AM)100% (Mar 22, 10:00 PM)30.24 "Hg (Mar 22, 10:00 PM)
Low-13 °F (Mar 15, 4:00 AM)41% (Mar 28, 3:00 PM)28.97 "Hg (Mar 23, 7:00 AM)
Average12 °F72%29.75 "Hg
* Reported Midnight between Mar 14 and Mar 15 — Midnight between Mar 29 and Mar 30, Hopedale, Weather by CustomWeather, © 2015

Note: Actual official high and low records may vary slightly from our data, if they occured in-between our weather recording intervals... More about our weather records

Advertising

Hopedale weather history for previous 24 hours

 ConditionsComfort  
Time TempWeatherWind HumidityBarometerVisibility
12:00 AM
Mon, Mar 30
12 °FCold.No wind90%29.63 "HgN/A
11:00 PM
Sun, Mar 29
12 °FCold.1 mph88%29.65 "HgN/A
10:00 PM13 °FCold.2 mph81%29.64 "HgN/A
9:00 PM14 °FCold.2 mph75%29.64 "HgN/A
8:00 PM14 °FCold.1 mph72%29.62 "HgN/A
7:00 PM15 °FCold.8 mph66%29.61 "HgN/A
6:00 PM15 °FCold.9 mph65%29.59 "HgN/A
5:00 PM16 °FCold.12 mph65%29.57 "HgN/A
4:00 PM17 °FCold.14 mph66%29.57 "HgN/A
3:00 PM17 °FCold.10 mph63%29.56 "HgN/A
2:00 PM23 °FCold.10 mph51%29.55 "HgN/A
1:00 PM23 °FCold.13 mph51%29.54 "HgN/A
12:00 PM21 °FCold.15 mph53%29.56 "HgN/A
11:00 AM19 °FCold.16 mph58%29.56 "HgN/A
10:00 AM16 °FCold.15 mph58%29.56 "HgN/A
9:00 AM13 °FCold.10 mph60%29.56 "HgN/A
8:00 AM11 °FCold.9 mph62%29.56 "HgN/A
7:00 AM7 °FFrigid.14 mph68%29.56 "HgN/A
6:00 AM8 °FFrigid.10 mph70%29.56 "HgN/A
5:00 AM10 °FCold.14 mph60%29.57 "HgN/A
4:00 AM10 °FCold.15 mph58%29.58 "HgN/A
3:00 AM9 °FFrigid.14 mph61%29.59 "HgN/A
2:00 AM13 °FCold.15 mph50%29.60 "HgN/A
1:00 AM12 °FCold.15 mph54%29.60 "HgN/A
Weather by CustomWeather, © 2015

See weather overviewHow to use our weather pages